Location: Unspecified
(0.0000°N, 0.0000°E)
Time: 00:11:38
(UTC+00:00)

STARLINK-32510 - Visible Passes

Search period start: 18 May 2026 00:00
Search period end: 28 May 2026 00:00
Orbit: 482 x 485 km, 43.0° (Epoch: 17 May)

Date Brightness Start Highest point End Pass type
(mag) Time Alt. Az. Time Alt. Az. Time Alt. Az.
26 May 4.9 18:57:58 10° S 19:00:03 19° SSE 19:00:03 19° SSE visible
27 May 4.8 18:30:09 10° S 18:32:57 20° SE 18:35:44 10° E visible
27 May 6.0 20:08:37 10° W 20:10:18 19° W 20:10:18 19° W visible
